Date_Time,Julian_Date,Latitude,Longitude,Instrument_Depth,Water_Temperature
(yyyy-mm-dd hh:mn:ss UTC),(JD),(+ deg. North),(+ deg. East),(m),(deg. C)
1985-01-23 09:51:00 UTC,2446088.910417,26.2417,-83.2217,0017,21.0800
1985-01-23 10:21:00 UTC,2446088.931250,26.2417,-83.2217,0017,21.1900
1985-01-23 10:51:00 UTC,2446088.952083,26.2417,-83.2217,0017,21.2200
1985-01-23 11:21:00 UTC,2446088.972917,26.2417,-83.2217,0017,21.2200
1985-01-23 11:51:00 UTC,2446088.993750,26.2417,-83.2217,0017,21.2200
1985-01-23 12:21:00 UTC,2446089.014583,26.2417,-83.2217,0017,21.2200
1985-01-23 12:51:00 UTC,2446089.035417,26.2417,-83.2217,0017,21.2200
1985-01-23 13:21:00 UTC,2446089.056250,26.2417,-83.2217,0017,21.2000
1985-01-23 13:51:00 UTC,2446089.077083,26.2417,-83.2217,0017,21.2200
1985-01-23 14:21:00 UTC,2446089.097917,26.2417,-83.2217,0017,21.2200
1985-01-23 14:51:00 UTC,2446089.118750,26.2417,-83.2217,0017,21.2200
1985-01-23 15:21:00 UTC,2446089.139583,26.2417,-83.2217,0017,21.2200
1985-01-23 15:51:00 UTC,2446089.160417,26.2417,-83.2217,0017,21.2200
1985-01-23 16:21:00 UTC,2446089.181250,26.2417,-83.2217,0017,21.2200
1985-01-23 16:51:00 UTC,2446089.202083,26.2417,-83.2217,0017,21.2300
1985-01-23 17:21:00 UTC,2446089.222917,26.2417,-83.2217,0017,21.2300
1985-01-23 17:51:00 UTC,2446089.243750,26.2417,-83.2217,0017,21.2300
1985-01-23 18:21:00 UTC,2446089.264583,26.2417,-83.2217,0017,21.2300
1985-01-23 18:51:00 UTC,2446089.285417,26.2417,-83.2217,0017,21.2300
1985-01-23 19:21:00 UTC,2446089.306250,26.2417,-83.2217,0017,21.2300
1985-01-23 19:51:00 UTC,2446089.327083,26.2417,-83.2217,0017,21.2300
1985-01-23 20:21:00 UTC,2446089.347917,26.2417,-83.2217,0017,21.2300
1985-01-23 20:51:00 UTC,2446089.368750,26.2417,-83.2217,0017,21.2300
1985-01-23 21:21:00 UTC,2446089.389583,26.2417,-83.2217,0017,21.2200
1985-01-23 21:51:00 UTC,2446089.410417,26.2417,-83.2217,0017,21.2200
1985-01-23 22:21:00 UTC,2446089.431250,26.2417,-83.2217,0017,21.2200
1985-01-23 22:51:00 UTC,2446089.452083,26.2417,-83.2217,0017,21.2100
1985-01-23 23:21:00 UTC,2446089.472917,26.2417,-83.2217,0017,21.2000
1985-01-23 23:51:00 UTC,2446089.493750,26.2417,-83.2217,0017,21.2000
1985-01-24 00:21:00 UTC,2446089.514583,26.2417,-83.2217,0017,21.1900
1985-01-24 00:51:00 UTC,2446089.535417,26.2417,-83.2217,0017,21.1900
1985-01-24 01:21:00 UTC,2446089.556250,26.2417,-83.2217,0017,21.1900
1985-01-24 01:51:00 UTC,2446089.577083,26.2417,-83.2217,0017,21.1900
1985-01-24 02:21:00 UTC,2446089.597917,26.2417,-83.2217,0017,21.1700
1985-01-24 02:51:00 UTC,2446089.618750,26.2417,-83.2217,0017,21.1700
1985-01-24 03:21:00 UTC,2446089.639583,26.2417,-83.2217,0017,21.1700
1985-01-24 03:51:00 UTC,2446089.660417,26.2417,-83.2217,0017,21.1700
1985-01-24 04:21:00 UTC,2446089.681250,26.2417,-83.2217,0017,21.1700
1985-01-24 04:51:00 UTC,2446089.702083,26.2417,-83.2217,0017,21.1700
1985-01-24 05:21:00 UTC,2446089.722917,26.2417,-83.2217,0017,21.1700
1985-01-24 05:51:00 UTC,2446089.743750,26.2417,-83.2217,0017,21.1500
1985-01-24 06:21:00 UTC,2446089.764583,26.2417,-83.2217,0017,21.1500
1985-01-24 06:51:00 UTC,2446089.785417,26.2417,-83.2217,0017,21.1400
1985-01-24 07:21:00 UTC,2446089.806250,26.2417,-83.2217,0017,21.1300
1985-01-24 07:51:00 UTC,2446089.827083,26.2417,-83.2217,0017,21.1100
1985-01-24 08:21:00 UTC,2446089.847917,26.2417,-83.2217,0017,21.1000
1985-01-24 08:51:00 UTC,2446089.868750,26.2417,-83.2217,0017,21.0800
1985-01-24 09:21:00 UTC,2446089.889583,26.2417,-83.2217,0017,21.0600
1985-01-24 09:51:00 UTC,2446089.910417,26.2417,-83.2217,0017,21.0500
1985-01-24 10:21:00 UTC,2446089.931250,26.2417,-83.2217,0017,21.0400
1985-01-24 10:51:00 UTC,2446089.952083,26.2417,-83.2217,0017,21.0200
1985-01-24 11:21:00 UTC,2446089.972917,26.2417,-83.2217,0017,21.0000
1985-01-24 11:51:00 UTC,2446089.993750,26.2417,-83.2217,0017,21.0000
1985-01-24 12:21:00 UTC,2446090.014583,26.2417,-83.2217,0017,20.9900
1985-01-24 12:51:00 UTC,2446090.035417,26.2417,-83.2217,0017,20.9900
1985-01-24 13:21:00 UTC,2446090.056250,26.2417,-83.2217,0017,20.9700
1985-01-24 13:51:00 UTC,2446090.077083,26.2417,-83.2217,0017,20.9700
1985-01-24 14:21:00 UTC,2446090.097917,26.2417,-83.2217,0017,20.9800
1985-01-24 14:51:00 UTC,2446090.118750,26.2417,-83.2217,0017,20.9900
1985-01-24 15:21:00 UTC,2446090.139583,26.2417,-83.2217,0017,20.9900
1985-01-24 15:51:00 UTC,2446090.160417,26.2417,-83.2217,0017,20.9900
1985-01-24 16:21:00 UTC,2446090.181250,26.2417,-83.2217,0017,20.9900
1985-01-24 16:51:00 UTC,2446090.202083,26.2417,-83.2217,0017,20.9700
1985-01-24 17:21:00 UTC,2446090.222917,26.2417,-83.2217,0017,20.9700
1985-01-24 17:51:00 UTC,2446090.243750,26.2417,-83.2217,0017,20.9900
1985-01-24 18:21:00 UTC,2446090.264583,26.2417,-83.2217,0017,20.9900
1985-01-24 18:51:00 UTC,2446090.285417,26.2417,-83.2217,0017,21.0000
1985-01-24 19:21:00 UTC,2446090.306250,26.2417,-83.2217,0017,20.9900
1985-01-24 19:51:00 UTC,2446090.327083,26.2417,-83.2217,0017,20.9900
1985-01-24 20:21:00 UTC,2446090.347917,26.2417,-83.2217,0017,21.0000
1985-01-24 20:51:00 UTC,2446090.368750,26.2417,-83.2217,0017,21.0000
1985-01-24 21:21:00 UTC,2446090.389583,26.2417,-83.2217,0017,21.0000
1985-01-24 21:51:00 UTC,2446090.410417,26.2417,-83.2217,0017,21.0000
1985-01-24 22:21:00 UTC,2446090.431250,26.2417,-83.2217,0017,20.9900
1985-01-24 22:51:00 UTC,2446090.452083,26.2417,-83.2217,0017,21.0100
1985-01-24 23:21:00 UTC,2446090.472917,26.2417,-83.2217,0017,21.0600
1985-01-24 23:51:00 UTC,2446090.493750,26.2417,-83.2217,0017,21.0900
1985-01-25 00:21:00 UTC,2446090.514583,26.2417,-83.2217,0017,21.0600
1985-01-25 00:51:00 UTC,2446090.535417,26.2417,-83.2217,0017,21.0900
1985-01-25 01:21:00 UTC,2446090.556250,26.2417,-83.2217,0017,21.0900
1985-01-25 01:51:00 UTC,2446090.577083,26.2417,-83.2217,0017,21.0900
1985-01-25 02:21:00 UTC,2446090.597917,26.2417,-83.2217,0017,21.0900
1985-01-25 02:51:00 UTC,2446090.618750,26.2417,-83.2217,0017,21.0900
1985-01-25 03:21:00 UTC,2446090.639583,26.2417,-83.2217,0017,21.0800
1985-01-25 03:51:00 UTC,2446090.660417,26.2417,-83.2217,0017,21.0800
1985-01-25 04:21:00 UTC,2446090.681250,26.2417,-83.2217,0017,21.0700
1985-01-25 04:51:00 UTC,2446090.702083,26.2417,-83.2217,0017,21.0700
1985-01-25 05:21:00 UTC,2446090.722917,26.2417,-83.2217,0017,21.0600
1985-01-25 05:51:00 UTC,2446090.743750,26.2417,-83.2217,0017,21.0600
1985-01-25 06:21:00 UTC,2446090.764583,26.2417,-83.2217,0017,21.0400
1985-01-25 06:51:00 UTC,2446090.785417,26.2417,-83.2217,0017,21.0300
1985-01-25 07:21:00 UTC,2446090.806250,26.2417,-83.2217,0017,21.0300
1985-01-25 07:51:00 UTC,2446090.827083,26.2417,-83.2217,0017,21.0200
1985-01-25 08:21:00 UTC,2446090.847917,26.2417,-83.2217,0017,21.0100
1985-01-25 08:51:00 UTC,2446090.868750,26.2417,-83.2217,0017,21.0100
1985-01-25 09:21:00 UTC,2446090.889583,26.2417,-83.2217,0017,21.0000
1985-01-25 09:51:00 UTC,2446090.910417,26.2417,-83.2217,0017,20.9900
1985-01-25 10:21:00 UTC,2446090.931250,26.2417,-83.2217,0017,20.9800
1985-01-25 10:51:00 UTC,2446090.952083,26.2417,-83.2217,0017,20.9600
1985-01-25 11:21:00 UTC,2446090.972917,26.2417,-83.2217,0017,20.9400
1985-01-25 11:51:00 UTC,2446090.993750,26.2417,-83.2217,0017,20.9400
1985-01-25 12:21:00 UTC,2446091.014583,26.2417,-83.2217,0017,20.9200
1985-01-25 12:51:00 UTC,2446091.035417,26.2417,-83.2217,0017,20.9200
1985-01-25 13:21:00 UTC,2446091.056250,26.2417,-83.2217,0017,20.9100
1985-01-25 13:51:00 UTC,2446091.077083,26.2417,-83.2217,0017,20.9100
1985-01-25 14:21:00 UTC,2446091.097917,26.2417,-83.2217,0017,20.9100
1985-01-25 14:51:00 UTC,2446091.118750,26.2417,-83.2217,0017,20.9200
1985-01-25 15:21:00 UTC,2446091.139583,26.2417,-83.2217,0017,20.9400
1985-01-25 15:51:00 UTC,2446091.160417,26.2417,-83.2217,0017,20.9500
1985-01-25 16:21:00 UTC,2446091.181250,26.2417,-83.2217,0017,20.9700
1985-01-25 16:51:00 UTC,2446091.202083,26.2417,-83.2217,0017,20.9900
1985-01-25 17:21:00 UTC,2446091.222917,26.2417,-83.2217,0017,21.0000
1985-01-25 17:51:00 UTC,2446091.243750,26.2417,-83.2217,0017,21.0000
1985-01-25 18:21:00 UTC,2446091.264583,26.2417,-83.2217,0017,21.0000
1985-01-25 18:51:00 UTC,2446091.285417,26.2417,-83.2217,0017,20.9900
1985-01-25 19:21:00 UTC,2446091.306250,26.2417,-83.2217,0017,20.9900
1985-01-25 19:51:00 UTC,2446091.327083,26.2417,-83.2217,0017,20.9900
1985-01-25 20:21:00 UTC,2446091.347917,26.2417,-83.2217,0017,20.9700
1985-01-25 20:51:00 UTC,2446091.368750,26.2417,-83.2217,0017,20.9700
1985-01-25 21:21:00 UTC,2446091.389583,26.2417,-83.2217,0017,20.9500
1985-01-25 21:51:00 UTC,2446091.410417,26.2417,-83.2217,0017,20.9400
1985-01-25 22:21:00 UTC,2446091.431250,26.2417,-83.2217,0017,20.9400
1985-01-25 22:51:00 UTC,2446091.452083,26.2417,-83.2217,0017,20.9200
1985-01-25 23:21:00 UTC,2446091.472917,26.2417,-83.2217,0017,20.9200
1985-01-25 23:51:00 UTC,2446091.493750,26.2417,-83.2217,0017,20.9200
1985-01-26 00:21:00 UTC,2446091.514583,26.2417,-83.2217,0017,20.9400
1985-01-26 00:51:00 UTC,2446091.535417,26.2417,-83.2217,0017,20.9400
1985-01-26 01:21:00 UTC,2446091.556250,26.2417,-83.2217,0017,20.9400
1985-01-26 01:51:00 UTC,2446091.577083,26.2417,-83.2217,0017,20.9500
1985-01-26 02:21:00 UTC,2446091.597917,26.2417,-83.2217,0017,20.9500
1985-01-26 02:51:00 UTC,2446091.618750,26.2417,-83.2217,0017,20.9500
1985-01-26 03:21:00 UTC,2446091.639583,26.2417,-83.2217,0017,20.9500
1985-01-26 03:51:00 UTC,2446091.660417,26.2417,-83.2217,0017,20.9400
1985-01-26 04:21:00 UTC,2446091.681250,26.2417,-83.2217,0017,20.9400
1985-01-26 04:51:00 UTC,2446091.702083,26.2417,-83.2217,0017,20.9400
1985-01-26 05:21:00 UTC,2446091.722917,26.2417,-83.2217,0017,20.9300
1985-01-26 05:51:00 UTC,2446091.743750,26.2417,-83.2217,0017,20.9100
1985-01-26 06:21:00 UTC,2446091.764583,26.2417,-83.2217,0017,20.8900
1985-01-26 06:51:00 UTC,2446091.785417,26.2417,-83.2217,0017,20.8900
1985-01-26 07:21:00 UTC,2446091.806250,26.2417,-83.2217,0017,20.8600
1985-01-26 07:51:00 UTC,2446091.827083,26.2417,-83.2217,0017,20.8300
1985-01-26 08:21:00 UTC,2446091.847917,26.2417,-83.2217,0017,20.7700
1985-01-26 08:51:00 UTC,2446091.868750,26.2417,-83.2217,0017,20.6900
1985-01-26 09:21:00 UTC,2446091.889583,26.2417,-83.2217,0017,20.5900
1985-01-26 09:51:00 UTC,2446091.910417,26.2417,-83.2217,0017,20.5300
1985-01-26 10:21:00 UTC,2446091.931250,26.2417,-83.2217,0017,20.4800
1985-01-26 10:51:00 UTC,2446091.952083,26.2417,-83.2217,0017,20.4500
1985-01-26 11:21:00 UTC,2446091.972917,26.2417,-83.2217,0017,20.4200
1985-01-26 11:51:00 UTC,2446091.993750,26.2417,-83.2217,0017,20.3900
1985-01-26 12:21:00 UTC,2446092.014583,26.2417,-83.2217,0017,20.3700
1985-01-26 12:51:00 UTC,2446092.035417,26.2417,-83.2217,0017,20.3400
1985-01-26 13:21:00 UTC,2446092.056250,26.2417,-83.2217,0017,20.3300
1985-01-26 13:51:00 UTC,2446092.077083,26.2417,-83.2217,0017,20.3100
1985-01-26 14:21:00 UTC,2446092.097917,26.2417,-83.2217,0017,20.2900
1985-01-26 14:51:00 UTC,2446092.118750,26.2417,-83.2217,0017,20.2900
1985-01-26 15:21:00 UTC,2446092.139583,26.2417,-83.2217,0017,20.2800
1985-01-26 15:51:00 UTC,2446092.160417,26.2417,-83.2217,0017,20.2800
1985-01-26 16:21:00 UTC,2446092.181250,26.2417,-83.2217,0017,20.2900
1985-01-26 16:51:00 UTC,2446092.202083,26.2417,-83.2217,0017,20.2900
1985-01-26 17:21:00 UTC,2446092.222917,26.2417,-83.2217,0017,20.2900
1985-01-26 17:51:00 UTC,2446092.243750,26.2417,-83.2217,0017,20.3000
1985-01-26 18:21:00 UTC,2446092.264583,26.2417,-83.2217,0017,20.2900
1985-01-26 18:51:00 UTC,2446092.285417,26.2417,-83.2217,0017,20.3100
1985-01-26 19:21:00 UTC,2446092.306250,26.2417,-83.2217,0017,20.3100
1985-01-26 19:51:00 UTC,2446092.327083,26.2417,-83.2217,0017,20.3100
1985-01-26 20:21:00 UTC,2446092.347917,26.2417,-83.2217,0017,20.3200
1985-01-26 20:51:00 UTC,2446092.368750,26.2417,-83.2217,0017,20.3100
1985-01-26 21:21:00 UTC,2446092.389583,26.2417,-83.2217,0017,20.2900
1985-01-26 21:51:00 UTC,2446092.410417,26.2417,-83.2217,0017,20.2900
1985-01-26 22:21:00 UTC,2446092.431250,26.2417,-83.2217,0017,20.2900
1985-01-26 22:51:00 UTC,2446092.452083,26.2417,-83.2217,0017,20.2800
1985-01-26 23:21:00 UTC,2446092.472917,26.2417,-83.2217,0017,20.2600
1985-01-26 23:51:00 UTC,2446092.493750,26.2417,-83.2217,0017,20.2500
1985-01-27 00:21:00 UTC,2446092.514583,26.2417,-83.2217,0017,20.2300
1985-01-27 00:51:00 UTC,2446092.535417,26.2417,-83.2217,0017,20.2200
1985-01-27 01:21:00 UTC,2446092.556250,26.2417,-83.2217,0017,20.2000
1985-01-27 01:51:00 UTC,2446092.577083,26.2417,-83.2217,0017,20.1900
1985-01-27 02:21:00 UTC,2446092.597917,26.2417,-83.2217,0017,20.1800
1985-01-27 02:51:00 UTC,2446092.618750,26.2417,-83.2217,0017,20.1900
1985-01-27 03:21:00 UTC,2446092.639583,26.2417,-83.2217,0017,20.1700
1985-01-27 03:51:00 UTC,2446092.660417,26.2417,-83.2217,0017,20.1700
1985-01-27 04:21:00 UTC,2446092.681250,26.2417,-83.2217,0017,20.1600
1985-01-27 04:51:00 UTC,2446092.702083,26.2417,-83.2217,0017,20.1700
1985-01-27 05:21:00 UTC,2446092.722917,26.2417,-83.2217,0017,20.1600
1985-01-27 05:51:00 UTC,2446092.743750,26.2417,-83.2217,0017,20.1500
1985-01-27 06:21:00 UTC,2446092.764583,26.2417,-83.2217,0017,20.1400
1985-01-27 06:51:00 UTC,2446092.785417,26.2417,-83.2217,0017,20.1400
1985-01-27 07:21:00 UTC,2446092.806250,26.2417,-83.2217,0017,20.1200
1985-01-27 07:51:00 UTC,2446092.827083,26.2417,-83.2217,0017,20.1100
1985-01-27 08:21:00 UTC,2446092.847917,26.2417,-83.2217,0017,20.1100
1985-01-27 08:51:00 UTC,2446092.868750,26.2417,-83.2217,0017,20.1000
1985-01-27 09:21:00 UTC,2446092.889583,26.2417,-83.2217,0017,20.0900
1985-01-27 09:51:00 UTC,2446092.910417,26.2417,-83.2217,0017,20.0700
1985-01-27 10:21:00 UTC,2446092.931250,26.2417,-83.2217,0017,20.0600
1985-01-27 10:51:00 UTC,2446092.952083,26.2417,-83.2217,0017,20.0400
1985-01-27 11:21:00 UTC,2446092.972917,26.2417,-83.2217,0017,20.0300
1985-01-27 11:51:00 UTC,2446092.993750,26.2417,-83.2217,0017,20.0100
1985-01-27 12:21:00 UTC,2446093.014583,26.2417,-83.2217,0017,20.0100
1985-01-27 12:51:00 UTC,2446093.035417,26.2417,-83.2217,0017,20.0100
1985-01-27 13:21:00 UTC,2446093.056250,26.2417,-83.2217,0017,20.0000
1985-01-27 13:51:00 UTC,2446093.077083,26.2417,-83.2217,0017,20.0000
1985-01-27 14:21:00 UTC,2446093.097917,26.2417,-83.2217,0017,20.0000
1985-01-27 14:51:00 UTC,2446093.118750,26.2417,-83.2217,0017,20.0000
1985-01-27 15:21:00 UTC,2446093.139583,26.2417,-83.2217,0017,19.9900
1985-01-27 15:51:00 UTC,2446093.160417,26.2417,-83.2217,0017,19.9900
1985-01-27 16:21:00 UTC,2446093.181250,26.2417,-83.2217,0017,20.0000
1985-01-27 16:51:00 UTC,2446093.202083,26.2417,-83.2217,0017,20.0000
1985-01-27 17:21:00 UTC,2446093.222917,26.2417,-83.2217,0017,20.0100
1985-01-27 17:51:00 UTC,2446093.243750,26.2417,-83.2217,0017,20.0100
1985-01-27 18:21:00 UTC,2446093.264583,26.2417,-83.2217,0017,20.0100
1985-01-27 18:51:00 UTC,2446093.285417,26.2417,-83.2217,0017,20.0100
1985-01-27 19:21:00 UTC,2446093.306250,26.2417,-83.2217,0017,20.0100
1985-01-27 19:51:00 UTC,2446093.327083,26.2417,-83.2217,0017,20.0100
1985-01-27 20:21:00 UTC,2446093.347917,26.2417,-83.2217,0017,20.0200
1985-01-27 20:51:00 UTC,2446093.368750,26.2417,-83.2217,0017,20.0300
1985-01-27 21:21:00 UTC,2446093.389583,26.2417,-83.2217,0017,20.0300
1985-01-27 21:51:00 UTC,2446093.410417,26.2417,-83.2217,0017,20.0300
1985-01-27 22:21:00 UTC,2446093.431250,26.2417,-83.2217,0017,20.0200
1985-01-27 22:51:00 UTC,2446093.452083,26.2417,-83.2217,0017,20.0100
1985-01-27 23:21:00 UTC,2446093.472917,26.2417,-83.2217,0017,20.0300
1985-01-27 23:51:00 UTC,2446093.493750,26.2417,-83.2217,0017,20.0300
1985-01-28 00:21:00 UTC,2446093.514583,26.2417,-83.2217,0017,20.0300
1985-01-28 00:51:00 UTC,2446093.535417,26.2417,-83.2217,0017,20.0100
1985-01-28 01:21:00 UTC,2446093.556250,26.2417,-83.2217,0017,20.0000
1985-01-28 01:51:00 UTC,2446093.577083,26.2417,-83.2217,0017,20.0000
1985-01-28 02:21:00 UTC,2446093.597917,26.2417,-83.2217,0017,20.0100
1985-01-28 02:51:00 UTC,2446093.618750,26.2417,-83.2217,0017,20.0100
1985-01-28 03:21:00 UTC,2446093.639583,26.2417,-83.2217,0017,20.0000
1985-01-28 03:51:00 UTC,2446093.660417,26.2417,-83.2217,0017,20.0000
1985-01-28 04:21:00 UTC,2446093.681250,26.2417,-83.2217,0017,19.9900
1985-01-28 04:51:00 UTC,2446093.702083,26.2417,-83.2217,0017,19.9900
1985-01-28 05:21:00 UTC,2446093.722917,26.2417,-83.2217,0017,19.9900
1985-01-28 05:51:00 UTC,2446093.743750,26.2417,-83.2217,0017,19.9900
1985-01-28 06:21:00 UTC,2446093.764583,26.2417,-83.2217,0017,19.9900
1985-01-28 06:51:00 UTC,2446093.785417,26.2417,-83.2217,0017,19.9900
1985-01-28 07:21:00 UTC,2446093.806250,26.2417,-83.2217,0017,19.9900
1985-01-28 07:51:00 UTC,2446093.827083,26.2417,-83.2217,0017,19.9900
1985-01-28 08:21:00 UTC,2446093.847917,26.2417,-83.2217,0017,19.9700
1985-01-28 08:51:00 UTC,2446093.868750,26.2417,-83.2217,0017,19.9700
1985-01-28 09:21:00 UTC,2446093.889583,26.2417,-83.2217,0017,19.9700
1985-01-28 09:51:00 UTC,2446093.910417,26.2417,-83.2217,0017,19.9700
1985-01-28 10:21:00 UTC,2446093.931250,26.2417,-83.2217,0017,19.9700
1985-01-28 10:51:00 UTC,2446093.952083,26.2417,-83.2217,0017,19.9700
1985-01-28 11:21:00 UTC,2446093.972917,26.2417,-83.2217,0017,19.9700
1985-01-28 11:51:00 UTC,2446093.993750,26.2417,-83.2217,0017,19.9500
1985-01-28 12:21:00 UTC,2446094.014583,26.2417,-83.2217,0017,19.9500
1985-01-28 12:51:00 UTC,2446094.035417,26.2417,-83.2217,0017,19.9500
1985-01-28 13:21:00 UTC,2446094.056250,26.2417,-83.2217,0017,19.9500
1985-01-28 13:51:00 UTC,2446094.077083,26.2417,-83.2217,0017,19.9700
1985-01-28 14:21:00 UTC,2446094.097917,26.2417,-83.2217,0017,19.9800
1985-01-28 14:51:00 UTC,2446094.118750,26.2417,-83.2217,0017,19.9900
1985-01-28 15:21:00 UTC,2446094.139583,26.2417,-83.2217,0017,19.9900
1985-01-28 15:51:00 UTC,2446094.160417,26.2417,-83.2217,0017,20.0000
1985-01-28 16:21:00 UTC,2446094.181250,26.2417,-83.2217,0017,20.0600
1985-01-28 16:51:00 UTC,2446094.202083,26.2417,-83.2217,0017,20.0600
1985-01-28 17:21:00 UTC,2446094.222917,26.2417,-83.2217,0017,20.0900
1985-01-28 17:51:00 UTC,2446094.243750,26.2417,-83.2217,0017,20.1100
1985-01-28 18:21:00 UTC,2446094.264583,26.2417,-83.2217,0017,20.1100
1985-01-28 18:51:00 UTC,2446094.285417,26.2417,-83.2217,0017,20.1300
1985-01-28 19:21:00 UTC,2446094.306250,26.2417,-83.2217,0017,20.1100
1985-01-28 19:51:00 UTC,2446094.327083,26.2417,-83.2217,0017,20.1500
1985-01-28 20:21:00 UTC,2446094.347917,26.2417,-83.2217,0017,20.1400
1985-01-28 20:51:00 UTC,2446094.368750,26.2417,-83.2217,0017,20.1400
1985-01-28 21:21:00 UTC,2446094.389583,26.2417,-83.2217,0017,20.2100
1985-01-28 21:51:00 UTC,2446094.410417,26.2417,-83.2217,0017,20.3600
1985-01-28 22:21:00 UTC,2446094.431250,26.2417,-83.2217,0017,20.3500
1985-01-28 22:51:00 UTC,2446094.452083,26.2417,-83.2217,0017,20.2500
1985-01-28 23:21:00 UTC,2446094.472917,26.2417,-83.2217,0017,20.2700
1985-01-28 23:51:00 UTC,2446094.493750,26.2417,-83.2217,0017,20.2500
1985-01-29 00:21:00 UTC,2446094.514583,26.2417,-83.2217,0017,20.1900
1985-01-29 00:51:00 UTC,2446094.535417,26.2417,-83.2217,0017,20.2800
1985-01-29 01:21:00 UTC,2446094.556250,26.2417,-83.2217,0017,20.4200
1985-01-29 01:51:00 UTC,2446094.577083,26.2417,-83.2217,0017,20.4000
1985-01-29 02:21:00 UTC,2446094.597917,26.2417,-83.2217,0017,20.5300
1985-01-29 02:51:00 UTC,2446094.618750,26.2417,-83.2217,0017,20.4500
1985-01-29 03:21:00 UTC,2446094.639583,26.2417,-83.2217,0017,20.4000
1985-01-29 03:51:00 UTC,2446094.660417,26.2417,-83.2217,0017,20.3600
1985-01-29 04:21:00 UTC,2446094.681250,26.2417,-83.2217,0017,20.3600
1985-01-29 04:51:00 UTC,2446094.702083,26.2417,-83.2217,0017,20.3600
1985-01-29 05:21:00 UTC,2446094.722917,26.2417,-83.2217,0017,20.3200
1985-01-29 05:51:00 UTC,2446094.743750,26.2417,-83.2217,0017,20.3700
1985-01-29 06:21:00 UTC,2446094.764583,26.2417,-83.2217,0017,20.3100
1985-01-29 06:51:00 UTC,2446094.785417,26.2417,-83.2217,0017,20.3100
1985-01-29 07:21:00 UTC,2446094.806250,26.2417,-83.2217,0017,20.3300
1985-01-29 07:51:00 UTC,2446094.827083,26.2417,-83.2217,0017,20.3100
1985-01-29 08:21:00 UTC,2446094.847917,26.2417,-83.2217,0017,20.3000
1985-01-29 08:51:00 UTC,2446094.868750,26.2417,-83.2217,0017,20.2600
1985-01-29 09:21:00 UTC,2446094.889583,26.2417,-83.2217,0017,20.2600
1985-01-29 09:51:00 UTC,2446094.910417,26.2417,-83.2217,0017,20.2500
1985-01-29 10:21:00 UTC,2446094.931250,26.2417,-83.2217,0017,20.2200
1985-01-29 10:51:00 UTC,2446094.952083,26.2417,-83.2217,0017,20.2000
1985-01-29 11:21:00 UTC,2446094.972917,26.2417,-83.2217,0017,20.1900
1985-01-29 11:51:00 UTC,2446094.993750,26.2417,-83.2217,0017,20.1700
1985-01-29 12:21:00 UTC,2446095.014583,26.2417,-83.2217,0017,20.1400
1985-01-29 12:51:00 UTC,2446095.035417,26.2417,-83.2217,0017,20.1200
1985-01-29 13:21:00 UTC,2446095.056250,26.2417,-83.2217,0017,20.1100
1985-01-29 13:51:00 UTC,2446095.077083,26.2417,-83.2217,0017,20.0900
1985-01-29 14:21:00 UTC,2446095.097917,26.2417,-83.2217,0017,20.0900
1985-01-29 14:51:00 UTC,2446095.118750,26.2417,-83.2217,0017,20.0800
1985-01-29 15:21:00 UTC,2446095.139583,26.2417,-83.2217,0017,20.0800
1985-01-29 15:51:00 UTC,2446095.160417,26.2417,-83.2217,0017,20.0800
1985-01-29 16:21:00 UTC,2446095.181250,26.2417,-83.2217,0017,20.0800
1985-01-29 16:51:00 UTC,2446095.202083,26.2417,-83.2217,0017,20.0800
1985-01-29 17:21:00 UTC,2446095.222917,26.2417,-83.2217,0017,20.0800
1985-01-29 17:51:00 UTC,2446095.243750,26.2417,-83.2217,0017,20.0800
1985-01-29 18:21:00 UTC,2446095.264583,26.2417,-83.2217,0017,20.0900
1985-01-29 18:51:00 UTC,2446095.285417,26.2417,-83.2217,0017,20.0800
1985-01-29 19:21:00 UTC,2446095.306250,26.2417,-83.2217,0017,20.0800
1985-01-29 19:51:00 UTC,2446095.327083,26.2417,-83.2217,0017,20.0800
1985-01-29 20:21:00 UTC,2446095.347917,26.2417,-83.2217,0017,20.0900
1985-01-29 20:51:00 UTC,2446095.368750,26.2417,-83.2217,0017,20.1100
1985-01-29 21:21:00 UTC,2446095.389583,26.2417,-83.2217,0017,20.1200
1985-01-29 21:51:00 UTC,2446095.410417,26.2417,-83.2217,0017,20.1200
1985-01-29 22:21:00 UTC,2446095.431250,26.2417,-83.2217,0017,20.1400
1985-01-29 22:51:00 UTC,2446095.452083,26.2417,-83.2217,0017,20.1300
1985-01-29 23:21:00 UTC,2446095.472917,26.2417,-83.2217,0017,20.1400
1985-01-29 23:51:00 UTC,2446095.493750,26.2417,-83.2217,0017,20.1400
1985-01-30 00:21:00 UTC,2446095.514583,26.2417,-83.2217,0017,20.1200
1985-01-30 00:51:00 UTC,2446095.535417,26.2417,-83.2217,0017,20.1100
1985-01-30 01:21:00 UTC,2446095.556250,26.2417,-83.2217,0017,20.1000
1985-01-30 01:51:00 UTC,2446095.577083,26.2417,-83.2217,0017,20.0900
1985-01-30 02:21:00 UTC,2446095.597917,26.2417,-83.2217,0017,20.0800
1985-01-30 02:51:00 UTC,2446095.618750,26.2417,-83.2217,0017,20.0600
1985-01-30 03:21:00 UTC,2446095.639583,26.2417,-83.2217,0017,20.0400
1985-01-30 03:51:00 UTC,2446095.660417,26.2417,-83.2217,0017,20.0300
1985-01-30 04:21:00 UTC,2446095.681250,26.2417,-83.2217,0017,20.0200
1985-01-30 04:51:00 UTC,2446095.702083,26.2417,-83.2217,0017,20.0100
1985-01-30 05:21:00 UTC,2446095.722917,26.2417,-83.2217,0017,20.0100
1985-01-30 05:51:00 UTC,2446095.743750,26.2417,-83.2217,0017,20.0100
1985-01-30 06:21:00 UTC,2446095.764583,26.2417,-83.2217,0017,20.0000
1985-01-30 06:51:00 UTC,2446095.785417,26.2417,-83.2217,0017,19.9900
1985-01-30 07:21:00 UTC,2446095.806250,26.2417,-83.2217,0017,19.9900
1985-01-30 07:51:00 UTC,2446095.827083,26.2417,-83.2217,0017,19.9900
1985-01-30 08:21:00 UTC,2446095.847917,26.2417,-83.2217,0017,19.9900
1985-01-30 08:51:00 UTC,2446095.868750,26.2417,-83.2217,0017,19.9900
1985-01-30 09:21:00 UTC,2446095.889583,26.2417,-83.2217,0017,20.0000
1985-01-30 09:51:00 UTC,2446095.910417,26.2417,-83.2217,0017,20.0100
1985-01-30 10:21:00 UTC,2446095.931250,26.2417,-83.2217,0017,20.0300
1985-01-30 10:51:00 UTC,2446095.952083,26.2417,-83.2217,0017,20.0400
1985-01-30 11:21:00 UTC,2446095.972917,26.2417,-83.2217,0017,20.0600
1985-01-30 11:51:00 UTC,2446095.993750,26.2417,-83.2217,0017,20.0300
1985-01-30 12:21:00 UTC,2446096.014583,26.2417,-83.2217,0017,20.0900
1985-01-30 12:51:00 UTC,2446096.035417,26.2417,-83.2217,0017,20.0600
1985-01-30 13:21:00 UTC,2446096.056250,26.2417,-83.2217,0017,20.0800
1985-01-30 13:51:00 UTC,2446096.077083,26.2417,-83.2217,0017,20.0900